Denton, TX

6:04 AM CST on January 20, 2018 (GMT -0600)
Denton Municipal

Weather History for KDTO - October, 2012

Change the Weather History Date:

Tuesday, October 23, 2012

  Actual Average Record
Temperature  
Mean Temperature 76 °F -  
Max Temperature 86 °F 73 °F 91 °F (2001)
Min Temperature 69 °F 51 °F 33 °F (2008)
Cooling Degree Days 12    
Growing Degree Days 26 (Base 50)    
Moisture  
Dew Point 65 °F    
Average Humidity 71    
Maximum Humidity 90    
Minimum Humidity 54    
Precipitation  
Precipitation 0.00 in - - ()
Sea Level Pressure  
Sea Level Pressure 29.89 in    
Wind  
Wind Speed 13 mph (South)    
Max Wind Speed 20 mph    
Max Gust Speed 36 mph    
Visibility 10 miles    
Events      
Averages and records for this station are not official NWS values.
T = Trace of Precipitation, MM = Missing Value Source: NWS Daily Summary

Daily Weather History Graph

Daily Weather History Graph

Search for Another Location

Airport or City:

Trip Planner

Search our weather history database for the weather conditions in past years. The results will help you decide how hot, cold, wet, or windy it might be!

Date:

Astronomy

Oct. 23, 2012 Rise Set
Actual Time 7:39 AM CDT 6:45 PM CDT
Civil Twilight 7:14 AM CDT 7:10 PM CDT
Nautical Twilight 6:45 AM CDT 7:39 PM CDT
Astronomical Twilight 6:16 AM CDT 8:08 PM CDT
Moon 3:14 PM CDT (10/23) 1:51 AM CDT (10/23)
Length of Visible Light 11h 56m
Length of Day
11h 05m
Waxing Gibbous, 67% of the Moon is Illuminated
Oct 23
Waxing Gibbous
Oct 29
Full
Nov 6
Last Quarter
Nov 13
New
Nov 20
First Quarter

Hourly Weather History & Observations

Time (CDT) Temp. Heat Index Dew Point Humidity Pressure Visibility Wind Dir Wind Speed Gust Speed Precip Events Conditions
1:53 AM 72.0 °F - 64.9 °F 78% 29.88 in 10.0 mi South 10.4 mph 35.7 mph N/A   Clear
2:53 AM 71.1 °F - 64.9 °F 81% 29.89 in 10.0 mi SSE 12.7 mph - N/A   Clear
3:53 AM 71.1 °F - 64.9 °F 81% 29.89 in 10.0 mi South 15.0 mph - N/A   Mostly Cloudy
4:53 AM 72.0 °F - 64.9 °F 78% 29.89 in 10.0 mi South 10.4 mph - N/A   Overcast
5:53 AM 70.0 °F - 64.9 °F 84% 29.89 in 10.0 mi SSE 15.0 mph - N/A   Mostly Cloudy
6:53 AM 69.1 °F - 64.9 °F 87% 29.90 in 10.0 mi SSE 12.7 mph - N/A   Clear
7:53 AM 69.1 °F - 66.0 °F 90% 29.91 in 10.0 mi SSE 11.5 mph - N/A   Clear
8:53 AM 71.1 °F - 66.9 °F 87% 29.94 in 10.0 mi South 12.7 mph - N/A   Mostly Cloudy
10:53 AM 77.0 °F - 66.9 °F 71% 29.94 in 10.0 mi South 16.1 mph 23.0 mph N/A   Mostly Cloudy
11:19 AM 78.8 °F - 66.2 °F 65% 29.95 in 10.0 mi South 17.3 mph 26.5 mph N/A   Scattered Clouds
1:53 PM 82.0 °F 84.1 °F 66.0 °F 58% 29.88 in 10.0 mi South 16.1 mph 24.2 mph N/A   Mostly Cloudy
2:53 PM 84.9 °F 87.6 °F 66.9 °F 55% 29.86 in 10.0 mi South 16.1 mph - N/A   Mostly Cloudy
3:53 PM 84.9 °F 87.6 °F 66.9 °F 55% 29.85 in 10.0 mi South 15.0 mph - N/A   Scattered Clouds
4:53 PM 84.0 °F 86.3 °F 66.0 °F 55% 29.85 in 10.0 mi South 19.6 mph - N/A   Scattered Clouds
5:53 PM 82.9 °F 84.6 °F 64.9 °F 54% 29.84 in 10.0 mi South 15.0 mph - N/A   Clear
6:53 PM 79.0 °F - 64.9 °F 62% 29.85 in 10.0 mi South 13.8 mph - N/A   Clear
7:53 PM 78.1 °F - 64.9 °F 64% 29.86 in 10.0 mi South 13.8 mph - N/A   Clear
8:53 PM 75.9 °F - 64.9 °F 69% 29.87 in 10.0 mi South 10.4 mph - N/A   Clear
9:53 PM 75.9 °F - 64.9 °F 69% 29.89 in 10.0 mi North - - N/A   Clear
10:53 PM 75.0 °F - 64.0 °F 69% 29.90 in 10.0 mi North - - N/A   Clear
11:53 PM 72.0 °F - 64.0 °F 76% 29.91 in 10.0 mi South 8.1 mph - N/A   Clear